Wind_Speed
4 4 5 5 8 10 11 13 16 18 19 20 21 22 24 25 25 26 27 27 29 30 31 31 30 31 30 31 32 32 33 33 34 33 34 35 35 36 37 37 36 35 36 36
5 5 4 4 6 8 10 12 14 16 18 19 20 20 22 23 24 25 25 25 27 28 29 29 30 30 31 31 32 33 34 34 34 35 35 36 37 37 37 37 37 36 36 36
6 5 5 5 6 8 10 12 13 14 16 18 19 20 22 24 24 25 25 25 26 27 27 28 29 30 31 32 32 33 34 34 34 35 36 36 37 37 37 37 37 37 37 37
7 6 6 6 6 8 10 12 13 13 14 15 17 19 21 22 24 24 24 24 25 26 27 28 28 30 31 31 32 32 33 35 35 35 37 37 37 37 36 37 37 37 37 37
7 7 7 7 7 8 9 11 12 13 14 14 15 17 19 20 21 23 23 24 25 26 26 27 28 29 31 32 33 33 33 34 35 36 37 37 37 37 37 37 37 37 37 37
8 7 7 7 7 8 9 10 11 12 13 15 15 16 17 18 19 21 22 23 24 25 26 26 28 29 30 32 33 33 34 34 35 36 36 37 38 37 37 37 37 37 37 38
8 8 7 7 7 8 9 10 11 12 13 13 14 16 16 17 18 19 20 22 23 24 25 26 27 29 31 31 32 33 34 34 34 35 35 36 36 36 37 38 38 38 38 38
9 9 8 8 8 8 9 10 11 12 12 13 14 15 15 16 17 18 19 20 21 22 24 25 27 28 30 31 32 32 33 34 35 36 36 36 37 38 38 39 39 39 38 38
10 9 9 9 9 9 10 10 11 12 13 13 13 14 15 16 17 18 19 20 21 22 23 25 26 27 29 30 32 33 33 34 35 36 37 37 38 39 39 40 40 40 40 39
11 11 10 10 10 10 11 11 12 14 15 15 14 14 14 15 17 18 19 20 22 22 23 24 26 27 28 30 31 33 34 35 36 36 38 38 39 39 39 39 39 39 40 40
12 12 11 11 11 11 12 12 13 15 16 17 16 15 15 17 18 19 20 21 22 23 23 24 25 27 28 29 31 32 34 35 36 37 37 38 38 37 38 39 39 39 39 39
14 14 12 12 12 13 13 14 14 15 16 17 18 17 17 18 19 20 21 21 22 23 24 25 26 27 28 30 31 32 33 34 35 36 37 37 37 36 37 37 37 37 37 38
16 15 14 13 14 14 14 15 16 17 17 18 18 17 18 18 19 20 21 21 22 23 24 25 26 27 28 29 31 32 33 34 35 35 36 36 36 36 36 36 35 36 36 36
18 17 16 16 16 16 16 17 18 19 19 19 19 19 19 20 20 20 21 22 23 24 24 25 26 27 28 30 31 32 33 34 34 34 35 36 36 36 36 36 36 37 37 37
20 19 18 18 18 18 18 18 19 20 20 21 20 21 21 21 21 21 22 23 24 25 25 25 26 28 29 30 31 32 33 33 34 34 35 35 36 36 36 37 37 37 38 39
21 21 20 19 20 20 19 18 19 20 21 21 21 22 22 23 22 23 24 25 26 26 26 27 28 29 29 30 31 31 31 32 32 33 34 35 36 36 37 37 37 37 38 39
22 22 22 20 21 21 20 20 20 21 22 22 22 22 23 24 24 25 26 26 27 28 28 28 29 30 30 31 31 31 31 31 32 33 34 35 35 36 36 37 37 38 38 39
23 23 24 23 23 23 21 22 23 23 23 24 24 24 25 25 25 25 26 27 27 28 29 30 30 30 31 31 31 31 31 32 33 33 34 35 35 35 36 36 37 38 39 39
26 26 26 26 26 25 24 24 25 25 25 25 26 26 26 27 27 26 27 27 28 29 30 30 31 32 32 32 32 32 32 33 33 33 34 34 34 35 35 36 37 38 38 39
27 28 28 29 29 28 26 27 27 28 27 27 27 27 28 28 29 28 29 29 30 31 31 32 32 32 32 33 33 32 32 32 32 32 32 33 34 35 36 36 37 37 38 38
29 30 30 31 31 30 29 29 29 30 30 30 29 29 30 30 31 31 31 32 32 32 33 33 32 32 32 33 32 32 32 32 31 31 31 32 33 34 35 36 37 38 38 39
32 32 32 33 33 31 31 31 31 31 31 31 32 32 32 32 33 33 33 33 34 34 34 34 34 34 33 33 32 31 31 31 31 31 32 33 34 35 36 37 38 38 39 39
34 34 35 34 33 32 33 33 33 33 33 33 33 33 34 34 34 34 34 35 35 35 35 36 36 35 34 33 32 32 32 32 32 32 32 33 34 35 36 37 37 38 38 39
36 35 36 35 34 34 34 35 35 35 35 35 35 35 36 36 36 35 35 36 35 36 36 36 36 35 34 34 34 34 33 33 33 33 33 34 34 34 35 36 37 38 38 38
36 36 37 37 36 36 36 36 37 37 36 36 36 37 37 37 37 37 36 36 36 36 36 36 35 34 34 34 34 33 33 33 33 33 33 33 33 34 34 35 36 37 37 37
36 37 38 38 37 39 38 38 38 38 38 38 38 38 38 38 38 37 37 37 37 36 36 35 34 34 34 34 33 33 33 33 33 33 33 33 33 34 34 35 36 36 37 37
Wind_Direction
292 277 260 250 235 225 223 228 229 228 228 230 230 231 234 236 237 238 240 240 240 241 242 241 242 242 243 244 246 248 250 251 253 257 260 261 265 266 267 268 269 271 272 274
305 280 271 260 239 225 227 228 229 230 232 233 233 234 235 236 236 238 240 240 239 241 241 242 243 244 245 246 249 250 251 254 256 258 261 263 264 266 268 270 270 270 273 275
324 297 282 270 248 234 235 232 231 233 236 238 239 238 238 238 237 237 240 241 240 241 242 243 244 245 246 247 250 253 254 257 258 260 262 265 266 267 269 270 272 273 274 275
320 307 291 277 260 250 245 239 236 238 241 240 242 241 239 239 238 239 241 243 242 243 243 245 246 247 248 249 251 254 256 258 260 262 264 267 267 268 270 271 272 273 274 274
320 307 293 281 266 261 254 247 244 244 245 245 245 245 240 241 241 241 243 246 247 246 247 248 249 250 251 252 254 255 259 260 261 263 264 267 268 268 270 271 271 272 274 275
326 313 296 282 271 263 258 253 252 250 250 249 248 247 242 241 241 242 244 247 249 250 250 251 251 252 254 254 255 258 260 261 261 262 264 267 267 267 269 271 272 272 275 276
325 313 298 284 274 261 258 260 259 255 253 253 252 251 247 244 245 247 247 248 250 252 252 253 254 255 257 256 257 259 261 261 261 263 264 265 266 266 268 269 271 273 275 277
319 310 297 286 279 271 267 268 267 264 259 259 258 256 254 251 251 251 251 250 251 254 255 257 258 259 260 260 260 261 262 262 262 264 264 265 266 268 270 271 272 273 275 277
315 311 299 289 283 275 272 274 273 273 269 266 263 260 257 256 254 253 253 254 254 256 257 259 261 262 264 264 263 263 263 265 266 266 266 267 269 270 270 271 271 273 274 276
314 311 302 292 285 279 275 273 274 275 275 273 267 265 264 259 257 255 255 256 258 260 261 262 263 264 266 266 265 265 265 267 267 269 269 269 271 270 270 271 271 272 274 275
312 308 303 292 286 282 279 277 276 275 275 274 272 270 269 266 263 261 260 260 260 262 263 265 265 266 267 267 268 268 268 268 268 269 270 271 272 272 272 272 272 273 273 274
307 304 298 290 286 283 281 279 278 278 277 276 277 277 274 273 270 266 265 265 266 266 267 267 267 267 268 269 270 270 271 270 270 271 271 272 273 273 273 274 275 275 275 276
302 302 297 288 284 282 280 277 277 277 276 276 277 278 276 275 273 270 269 269 269 270 271 272 272 272 272 272 272 271 271 271 270 271 272 272 273 273 274 275 275 275 276 277
297 297 294 291 286 281 277 276 275 277 276 275 276 276 276 275 274 274 273 273 273 275 275 275 276 277 277 277 276 274 273 272 271 271 272 272 272 273 273 274 274 275 276 277
295 293 291 289 286 283 282 279 278 278 278 277 276 275 276 275 276 275 275 275 276 276 276 277 278 280 280 280 279 277 275 273 272 272 272 272 272 273 273 274 274 275 277 278
294 293 290 288 286 285 283 281 280 279 280 280 278 276 275 276 276 276 277 278 278 278 278 278 280 282 283 282 281 280 277 275 273 273 272 272 272 273 273 273 274 275 277 279
292 292 291 288 285 283 282 282 280 281 281 281 281 279 277 277 277 277 278 279 280 280 280 280 281 282 283 283 282 281 279 277 275 274 274 273 273 273 272 273 274 276 278 280
290 290 289 289 285 282 284 283 282 282 282 282 281 280 280 279 279 280 281 281 280 281 281 280 281 282 283 284 283 282 281 279 277 276 275 274 274 273 274 274 275 277 279 280
286 287 286 287 286 284 283 283 283 283 283 283 282 281 280 279 279 280 281 282 283 283 283 283 283 283 284 283 282 281 280 280 278 277 276 275 275 275 275 277 278 279 280 282
285 284 284 284 285 285 286 283 283 283 283 282 282 281 281 280 280 280 281 282 283 284 284 285 284 284 284 284 282 281 280 280 279 279 278 277 276 276 277 278 280 281 282 283
284 283 282 283 283 284 285 285 284 284 284 283 282 281 282 282 282 281 282 283 283 284 284 284 283 283 284 284 282 280 280 280 279 279 279 279 278 278 278 280 281 282 283 284
281 281 282 282 283 285 285 284 284 284 283 283 281 281 281 282 282 282 282 282 282 283 283 282 282 282 282 282 281 280 281 281 282 281 281 281 281 280 280 281 282 283 284 285
280 280 281 282 283 283 283 283 283 283 283 282 282 282 282 282 283 282 281 281 280 281 282 282 281 280 280 280 280 281 281 282 282 283 284 284 283 283 282 282 282 283 284 285
278 278 279 281 282 281 280 280 281 282 283 283 283 283 282 283 283 282 281 281 281 281 282 282 280 279 278 278 280 281 281 281 282 283 285 285 285 284 283 283 283 284 284 285
278 278 279 279 280 278 278 279 280 280 281 281 282 282 282 283 283 282 281 281 281 281 282 281 280 279 278 278 279 281 281 281 282 283 285 285 286 285 285 285 285 285 286 286
278 277 278 278 278 278 279 278 278 279 279 280 280 280 281 282 282 281 281 281 281 282 282 281 280 279 278 278 279 281 281 281 282 283 284 284 285 286 287 286 287 287 287 286
Height
5711 5711 5710 5711 5711 5712 5713 5715 5717 5719 5721 5724 5726 5729 5732 5734 5738 5740 5743 5746 5748 5751 5753 5755 5757 5760 5762 5764 5766 5768 5769 5771 5772 5772 5773 5774 5774 5774 5774 5774 5773 5774 5773 5772
5711 5711 5710 5710 5710 5711 5712 5713 5715 5717 5719 5721 5723 5726 5728 5731 5733 5736 5738 5740 5743 5745 5747 5749 5752 5754 5756 5757 5759 5761 5762 5763 5765 5765 5766 5766 5766 5765 5765 5765 5765 5765 5764 5763
5711 5711 5709 5709 5709 5710 5711 5712 5713 5715 5717 5718 5720 5723 5724 5726 5729 5731 5733 5735 5737 5739 5741 5743 5745 5747 5749 5751 5752 5754 5755 5756 5757 5757 5757 5757 5757 5757 5757 5756 5756 5756 5756 5755
5710 5709 5709 5708 5708 5709 5709 5710 5711 5712 5714 5715 5717 5719 5721 5722 5724 5726 5728 5730 5731 5733 5735 5737 5739 5741 5742 5744 5745 5746 5748 5748 5749 5749 5750 5749 5749 5749 5749 5748 5748 5747 5747 5746
5710 5708 5708 5707 5707 5707 5708 5708 5709 5710 5711 5712 5713 5715 5717 5718 5720 5722 5723 5725 5726 5728 5730 5731 5732 5734 5735 5737 5738 5739 5740 5741 5741 5741 5742 5741 5741 5741 5740 5740 5739 5739 5738 5737
5709 5707 5706 5706 5706 5706 5706 5707 5707 5707 5708 5710 5710 5711 5713 5714 5715 5717 5718 5719 5720 5722 5723 5725 5726 5727 5728 5729 5730 5731 5732 5732 5732 5733 5733 5733 5733 5733 5732 5731 5731 5730 5729 5728
5708 5707 5705 5705 5704 5704 5704 5705 5705 5705 5705 5706 5707 5707 5709 5710 5711 5712 5713 5714 5715 5716 5717 5718 5719 5720 5721 5722 5722 5723 5723 5723 5724 5724 5724 5725 5724 5724 5723 5722 5722 5721 5720 5719
5707 5706 5704 5703 5703 5702 5702 5702 5703 5703 5703 5703 5703 5703 5705 5706 5706 5707 5708 5709 5709 5710 5711 5712 5713 5713 5714 5714 5714 5714 5715 5715 5716 5716 5715 5715 5715 5715 5714 5713 5712 5711 5710 5709
5705 5705 5703 5701 5701 5700 5700 5699 5700 5700 5699 5700 5700 5701 5701 5701 5702 5702 5703 5704 5704 5705 5705 5706 5706 5706 5707 5707 5707 5706 5707 5707 5707 5706 5706 5706 5705 5705 5704 5703 5702 5701 5700 5699
5703 5702 5701 5700 5699 5698 5698 5697 5697 5696 5695 5696 5697 5697 5698 5697 5697 5698 5698 5698 5698 5699 5699 5699 5699 5700 5699 5699 5699 5698 5698 5698 5698 5697 5697 5696 5696 5695 5694 5693 5692 5691 5690 5689
5701 5700 5699 5697 5696 5695 5695 5694 5693 5692 5692 5692 5692 5696 5693 5692 5692 5692 5692 5692 5692 5692 5692 5692 5692 5692 5692 5691 5690 5690 5689 5689 5689 5688 5687 5686 5686 5685 5684 5683 5682 5681 5680 5679
5698 5697 5695 5694 5693 5691 5691 5690 5690 5689 5689 5687 5687 5692 5688 5687 5686 5686 5686 5686 5686 5686 5685 5685 5685 5684 5684 5683 5682 5681 5680 5680 5679 5678 5678 5677 5676 5675 5674 5673 5672 5671 5670 5669
5694 5693 5691 5691 5691 5689 5687 5686 5685 5684 5684 5683 5683 5687 5683 5681 5680 5680 5680 5680 5679 5679 5679 5678 5677 5676 5675 5674 5673 5672 5671 5670 5669 5669 5668 5667 5666 5665 5664 5663 5662 5661 5660 5659
5690 5689 5688 5687 5685 5683 5682 5682 5680 5679 5679 5678 5679 5679 5677 5676 5675 5675 5674 5673 5673 5672 5671 5670 5669 5668 5667 5665 5664 5663 5662 5660 5659 5659 5658 5657 5656 5655 5654 5653 5652 5651 5650 5649
5685 5684 5683 5681 5679 5678 5677 5676 5675 5674 5673 5673 5673 5672 5671 5670 5669 5668 5667 5666 5665 5664 5663 5662 5661 5659 5658 5656 5655 5653 5652 5650 5649 5648 5647 5646 5645 5644 5644 5643 5642 5641 5640 5638
5679 5678 5677 5676 5674 5672 5672 5671 5669 5668 5667 5666 5666 5666 5664 5663 5662 5661 5660 5659 5658 5657 5656 5654 5653 5651 5649 5647 5645 5643 5642 5640 5639 5638 5637 5636 5635 5634 5633 5632 5631 5630 5629 5627
5674 5672 5671 5670 5668 5667 5666 5666 5664 5662 5661 5660 5659 5659 5657 5656 5655 5654 5653 5651 5650 5649 5647 5646 5644 5642 5640 5638 5636 5634 5632 5630 5629 5628 5626 5625 5624 5623 5622 5621 5620 5619 5618 5616
5668 5665 5663 5663 5662 5661 5663 5659 5657 5656 5655 5653 5652 5651 5650 5648 5647 5646 5644 5642 5641 5639 5638 5636 5635 5633 5631 5628 5626 5624 5622 5620 5619 5617 5616 5615 5614 5613 5612 5611 5609 5608 5606 5605
5660 5658 5656 5655 5653 5653 5654 5652 5650 5648 5648 5646 5644 5643 5641 5640 5639 5638 5636 5634 5632 5630 5628 5627 5625 5623 5621 5619 5617 5615 5613 5611 5609 5608 5606 5605 5603 5602 5601 5600 5598 5597 5595 5593
5653 5650 5649 5647 5645 5645 5647 5644 5641 5641 5639 5638 5636 5634 5632 5631 5630 5630 5627 5625 5623 5621 5619 5617 5615 5613 5611 5609 5607 5605 5603 5601 5599 5598 5596 5594 5593 5592 5591 5589 5587 5586 5584 5582
5644 5642 5641 5638 5636 5636 5637 5634 5633 5633 5632 5629 5626 5625 5623 5622 5621 5620 5617 5615 5613 5611 5609 5607 5605 5603 5601 5599 5597 5595 5593 5592 5590 5588 5586 5585 5583 5581 5580 5578 5576 5574 5572 5570
5634 5632 5631 5629 5628 5630 5627 5625 5623 5622 5620 5618 5616 5615 5613 5612 5610 5609 5607 5605 5603 5601 5599 5596 5595 5593 5591 5589 5587 5585 5584 5582 5580 5579 5577 5575 5573 5571 5569 5567 5565 5563 5561 5558
5624 5623 5621 5621 5622 5619 5616 5614 5613 5611 5610 5608 5606 5605 5603 5601 5600 5598 5596 5594 5592 5590 5588 5586 5584 5583 5581 5579 5577 5575 5574 5572 5570 5569 5567 5564 5562 5560 5558 5556 5554 5551 5549 5547
5614 5612 5610 5610 5610 5608 5605 5603 5602 5600 5599 5597 5596 5594 5592 5590 5589 5587 5585 5583 5581 5579 5577 5575 5573 5572 5570 5569 5567 5565 5563 5562 5560 5558 5556 5554 5552 5549 5547 5544 5542 5540 5538 5535
5602 5600 5598 5597 5598 5595 5594 5592 5591 5589 5587 5586 5584 5583 5581 5579 5577 5575 5574 5572 5570 5568 5566 5564 5562 5561 5560 5558 5557 5555 5553 5551 5549 5548 5546 5544 5541 5539 5536 5534 5531 5528 5526 5523
5591 5588 5586 5585 5585 5582 5582 5581 5579 5577 5576 5574 5573 5572 5569 5567 5565 5563 5562 5560 5558 5556 5554 5552 5551 5550 5548 5547 5546 5544 5542 5540 5539 5538 5536 5533 5531 5528 5526 5523 5520 5517 5515 5512